Language: 


Des rapports , des résumés tant et plus, au choix de chacun....


Données statistiques de la station
Quotidien Rapport Décembre 15, 2017 Unités:  Métrique    Anglais   les deux
« Précédent Jour
Suivant Jour »
Quotidien Hebdomadaire Mensuel Annuel Actuel
  Haut: Bas: Moyen:
Température: -17.8 °C -17.2 °C -16.2 °C
Pt de rosée: -17.8 °C -17.2 °C -16.2 °C
Humidité: Humidity % 98 % 98 %
Vitesse du vent: 0 km/h 0 km/h 5.5 km/h
Rafales: 0 km/h - -
Vent:- - WSW
Pression: 0 hPa 33490.9 hPa -
Précipitation: 63.5 mm    
Historical Graphs
 
 
Données statistiques pour Décembre 15, 2017
Heure Température Point de rosée Pression Vent Vitesse du vent Refales Humidité Pluie (taux horaire)
-17.8 °C -17.8 °C 0 hPa Calm     Humidity % 0 mm
00:04 -17.2 °C -17.2 °C 33490.9 hPa Calm   8 km/h 98 % 0 mm
00:09 -17.1 °C -17.2 °C 33490.9 hPa Calm   11.1 km/h 98 % 0 mm
00:14 -17.1 °C -17.2 °C 33490.9 hPa Calm   11.1 km/h 98 % 0 mm
00:19 -17 °C -17.2 °C 33490.9 hPa SW 14 km/h 16.3 km/h 98 % 0 mm
00:24 -16.9 °C -16.7 °C 33490.9 hPa SW 16.3 km/h 16.3 km/h 98 % 0 mm
00:30 -16.9 °C -16.7 °C 33524.8 hPa Calm   16.3 km/h 98 % 0 mm
00:35 -16.8 °C -16.7 °C 33524.8 hPa SSW 14 km/h 16.9 km/h 98 % 0 mm
00:40 -16.8 °C -16.7 °C 33524.8 hPa SSW 10.3 km/h 16.9 km/h 98 % 0 mm
00:45 -16.7 °C -16.7 °C 33490.9 hPa Calm   19.6 km/h 98 % 0 mm
00:50 -16.7 °C -16.7 °C 33490.9 hPa SSW 15 km/h 19.6 km/h 98 % 0 mm
00:55 -16.7 °C -16.7 °C 33490.9 hPa SW 14 km/h 19.6 km/h 98 % 0 mm
01:00 -16.7 °C -16.7 °C 33524.8 hPa SW 5.6 km/h 19.6 km/h 98 % 0 mm
01:05 -16.6 °C -16.7 °C 33524.8 hPa SSW 14.5 km/h 19.2 km/h 98 % 0 mm
01:06 -16.6 °C -16.7 °C 33524.8 hPa Calm   19.2 km/h 98 % 0 mm
01:12 -16.6 °C -16.7 °C 33490.9 hPa SW 9.3 km/h 14.5 km/h 98 % 0 mm
01:17 -16.6 °C -16.7 °C 33490.9 hPa Calm   16.3 km/h 98 % 0 mm
01:22 -16.6 °C -16.7 °C 33490.9 hPa Calm   17.4 km/h 98 % 0 mm
01:27 -16.5 °C -16.1 °C 33490.9 hPa SW 14.5 km/h 18.7 km/h 98 % 0 mm
01:32 -16.4 °C -16.1 °C 33490.9 hPa WSW 14 km/h 18.7 km/h 98 % 0 mm
01:37 -16.4 °C -16.1 °C 33490.9 hPa SW 11.1 km/h 20.9 km/h 98 % 0 mm
01:42 -16.3 °C -16.1 °C 33524.8 hPa SW 12.7 km/h 20.9 km/h 98 % 0 mm
01:47 -16.3 °C -16.1 °C 33524.8 hPa WSW 14 km/h 25.4 km/h 98 % 7.62 mm
01:52 -16.3 °C -16.1 °C 33524.8 hPa WSW 15 km/h 25.4 km/h 98 % 7.62 mm
01:57 -16.3 °C -16.1 °C 33524.8 hPa WSW 15.6 km/h 19.6 km/h 98 % 7.62 mm
02:02 -16.2 °C -16.1 °C 33524.8 hPa SW 16.3 km/h 16.9 km/h 98 % 7.62 mm
02:07 -16.2 °C -16.1 °C 33524.8 hPa WSW 14 km/h 16.9 km/h 98 % 7.62 mm
02:12 -16.2 °C -16.1 °C 33524.8 hPa SW 14 km/h 16.9 km/h 98 % 7.62 mm
02:18 -16.1 °C -16.1 °C 33524.8 hPa WSW 5.1 km/h 15 km/h 98 % 20.32 mm
02:23 -16.1 °C -16.1 °C 33524.8 hPa SW 10.3 km/h 15 km/h 98 % 25.4 mm
02:28 -16.1 °C -16.1 °C 33524.8 hPa Calm   16.9 km/h 98 % 25.4 mm
02:33 -16.1 °C -16.1 °C 33524.8 hPa South 2.3 km/h 16.9 km/h 98 % 33.02 mm
02:38 -15.9 °C -16.1 °C 33524.8 hPa Calm   14 km/h 98 % 33.02 mm
02:43 -15.9 °C -16.1 °C 33524.8 hPa SSW 5.1 km/h 8.9 km/h 98 % 38.1 mm
02:48 -15.9 °C -16.1 °C 33524.8 hPa SSW 2.3 km/h 9.3 km/h 98 % 33.02 mm
02:53 -15.9 °C -16.1 °C 33524.8 hPa Calm   9.8 km/h 98 % 33.02 mm
02:58 -15.9 °C -16.1 °C 33524.8 hPa Calm   9.8 km/h 98 % 33.02 mm
03:03 -15.9 °C -16.1 °C 33524.8 hPa Calm   7.6 km/h 98 % 33.02 mm
03:08 -15.9 °C -16.1 °C 33524.8 hPa SSW 9.3 km/h 9.3 km/h 98 % 33.02 mm
03:09 -15.9 °C -16.1 °C 33524.8 hPa South 6.4 km/h 9.3 km/h 98 % 33.02 mm
03:14 -15.9 °C -16.1 °C 33524.8 hPa SSW 6.4 km/h 9.8 km/h 98 % 20.32 mm
03:19 -15.9 °C -16.1 °C 33524.8 hPa WSW 11.1 km/h 12.2 km/h 98 % 20.32 mm
03:24 -15.9 °C -16.1 °C 33524.8 hPa SSW 6.9 km/h 16.3 km/h 98 % 12.7 mm
03:29 -15.9 °C -16.1 °C 33558.6 hPa Calm   16.3 km/h 98 % 12.7 mm
03:34 -16 °C -16.1 °C 33558.6 hPa SW 14 km/h 15.6 km/h 98 % 7.62 mm
03:39 -16 °C -16.1 °C 33558.6 hPa SW 8.9 km/h 16.3 km/h 98 % 7.62 mm
03:44 -15.9 °C -16.1 °C 33524.8 hPa SSW 10.3 km/h 16.3 km/h 98 % 0 mm
03:49 -15.9 °C -16.1 °C 33524.8 hPa SSW 16.9 km/h 16.9 km/h 98 % 0 mm
03:54 -15.9 °C -16.1 °C 33524.8 hPa WSW 9.3 km/h 16.9 km/h 98 % 0 mm
03:59 -15.9 °C -16.1 °C 33558.6 hPa SW 14.5 km/h 16.9 km/h 98 % 0 mm
04:04 -15.9 °C -16.1 °C 33558.6 hPa WSW 14 km/h 16.9 km/h 98 % 0 mm
04:09 -15.9 °C -16.1 °C 33558.6 hPa SW 11.6 km/h 16.3 km/h 98 % 0 mm
04:14 -15.9 °C -16.1 °C 33558.6 hPa SSW 9.3 km/h 16.3 km/h 98 % 0 mm
04:19 -15.8 °C -15.6 °C 33558.6 hPa SW 2.3 km/h 15.6 km/h 98 % 0 mm
04:25 -15.8 °C -15.6 °C 33558.6 hPa SW 8 km/h 14.5 km/h 98 % 0 mm
04:30 -15.8 °C -15.6 °C 33524.8 hPa SW 9.8 km/h 14.5 km/h 98 % 0 mm
04:35 -15.8 °C -15.6 °C 33524.8 hPa WSW 14 km/h 16.3 km/h 98 % 0 mm
04:40 -15.8 °C -15.6 °C 33524.8 hPa SW 12.7 km/h 16.3 km/h 98 % 0 mm
04:45 -15.8 °C -15.6 °C 33558.6 hPa SW 11.1 km/h 19.2 km/h 98 % 0 mm
04:50 -15.8 °C -15.6 °C 33558.6 hPa WSW 11.1 km/h 19.2 km/h 98 % 0 mm
05:00 -15.8 °C -15.6 °C 33558.6 hPa SW 14.5 km/h 20.9 km/h 98 % 0 mm
05:05 -15.8 °C -15.6 °C 33558.6 hPa SW 12.2 km/h 20.9 km/h 98 % 0 mm
05:10 -15.8 °C -15.6 °C 33558.6 hPa Calm   14.5 km/h 98 % 0 mm
05:15 -15.8 °C -15.6 °C 33558.6 hPa WSW 12.2 km/h 16.3 km/h 98 % 0 mm
05:20 -15.8 °C -15.6 °C 33558.6 hPa SSW 10.3 km/h 16.3 km/h 98 % 0 mm
05:26 -15.8 °C -15.6 °C 33558.6 hPa SSW 16.3 km/h 16.3 km/h 98 % 0 mm
05:31 -15.8 °C -15.6 °C 33558.6 hPa Calm   16.3 km/h 98 % 0 mm
05:36 -15.9 °C -16.1 °C 33558.6 hPa SSW 8.9 km/h 16.3 km/h 98 % 0 mm
05:41 -15.8 °C -15.6 °C 33558.6 hPa SSW 14 km/h 14 km/h 98 % 0 mm
05:46 -15.9 °C -16.1 °C 33558.6 hPa WSW 11.1 km/h 14 km/h 98 % 0 mm
05:47 -15.9 °C -16.1 °C 33558.6 hPa WSW 11.1 km/h 14 km/h 98 % 0 mm
05:52 -15.9 °C -16.1 °C 33558.6 hPa WSW 11.1 km/h 12.7 km/h 98 % 0 mm
05:54 -15.9 °C -16.1 °C 33558.6 hPa Calm   14 km/h 98 % 0 mm
06:00 -15.9 °C -16.1 °C 33558.6 hPa Calm   14 km/h 98 % 0 mm
06:05 -15.9 °C -16.1 °C 33558.6 hPa SW 6.9 km/h 12.7 km/h 98 % 0 mm
06:16 -15.9 °C -16.1 °C 33558.6 hPa Calm   9.3 km/h 98 % 0 mm
06:21 -16 °C -16.1 °C 33558.6 hPa Calm   8 km/h 98 % 0 mm
06:26 -16 °C -16.1 °C 33558.6 hPa WSW 9.3 km/h 11.6 km/h 98 % 0 mm
06:31 -16.1 °C -16.1 °C 33558.6 hPa Calm   12.7 km/h 98 % 0 mm
06:36 -16.1 °C -16.1 °C 33558.6 hPa Calm   12.7 km/h 98 % 0 mm
06:41 -16.3 °C -16.1 °C 33558.6 hPa SW 7.6 km/h 10.3 km/h 98 % 0 mm
06:46 -16.3 °C -16.1 °C 33558.6 hPa Calm   10.3 km/h 98 % 0 mm
06:51 -16.4 °C -16.1 °C 33558.6 hPa Calm   6.4 km/h 98 % 0 mm
06:56 -16.6 °C -16.7 °C 33558.6 hPa Calm     98 % 0 mm
07:01 -16.7 °C -16.7 °C 33558.6 hPa Calm     98 % 0 mm
07:06 -16.7 °C -16.7 °C 33558.6 hPa Calm   2.9 km/h 98 % 0 mm
07:12 -16.8 °C -16.7 °C 33558.6 hPa Calm   2.9 km/h 98 % 0 mm
07:17 -16.8 °C -16.7 °C 33558.6 hPa Calm   6.9 km/h 98 % 0 mm
07:22 -16.8 °C -16.7 °C 33558.6 hPa Calm   6.9 km/h 98 % 0 mm
07:27 -16.8 °C -16.7 °C 33558.6 hPa Calm   6.4 km/h 98 % 0 mm
07:32 -16.9 °C -16.7 °C 33558.6 hPa Calm   6.4 km/h 98 % 0 mm
07:37 -16.9 °C -16.7 °C 33558.6 hPa SSW 7.6 km/h 9.8 km/h 98 % 0 mm
07:42 -16.8 °C -16.7 °C 33558.6 hPa Calm   9.8 km/h 98 % 0 mm
07:47 -16.8 °C -16.7 °C 33558.6 hPa SSE 7.6 km/h 8.9 km/h 98 % 0 mm
07:52 -16.8 °C -16.7 °C 33558.6 hPa SSW 2.9 km/h 8.9 km/h 98 % 0 mm
07:57 -16.7 °C -16.7 °C 33524.8 hPa South 8 km/h 9.3 km/h 98 % 0 mm
08:02 -16.8 °C -16.7 °C 33524.8 hPa South 7.6 km/h 12.7 km/h 98 % 0 mm
08:07 -16.9 °C -16.7 °C 33524.8 hPa SSE 9.8 km/h 12.7 km/h 98 % 0 mm
08:12 -17 °C -17.2 °C 33558.6 hPa Calm   9.8 km/h 98 % 0 mm
08:17 -17 °C -17.2 °C 33558.6 hPa Calm   8 km/h 98 % 0 mm
08:22 -17.1 °C -17.2 °C 33558.6 hPa Calm   6.4 km/h 98 % 0 mm
08:27 -17.1 °C -17.2 °C 33558.6 hPa South 8.9 km/h 8.9 km/h 98 % 0 mm
08:32 -17.1 °C -17.2 °C 33558.6 hPa Calm   8.9 km/h 98 % 0 mm
08:37 -17.1 °C -17.2 °C 33558.6 hPa SSW 6.9 km/h 8.9 km/h 98 % 0 mm
08:42 -17.2 °C -17.2 °C 33558.6 hPa SSW 2.3 km/h 8.9 km/h 98 % 0 mm
08:47 -17.2 °C -17.2 °C 33558.6 hPa Calm   7.6 km/h 98 % 0 mm
08:50 -17.2 °C -17.2 °C 33558.6 hPa Calm   8 km/h 98 % 0 mm
08:55 -17.2 °C -17.2 °C 33558.6 hPa SW 3.4 km/h 9.8 km/h 98 % 0 mm
09:00 -17.1 °C -17.2 °C 33558.6 hPa Calm   9.8 km/h 98 % 0 mm
09:05 -17 °C -17.2 °C 33558.6 hPa Calm   9.3 km/h 98 % 0 mm
09:10 -17 °C -17.2 °C 33558.6 hPa Calm   6.4 km/h 98 % 0 mm
09:15 -17 °C -17.2 °C 33592.5 hPa Calm     98 % 0 mm
09:20 -17.1 °C -17.2 °C 33592.5 hPa WSW 2.3 km/h 2.3 km/h 98 % 0 mm
09:25 -17.2 °C -17.2 °C 33592.5 hPa Calm   2.3 km/h 98 % 0 mm
09:35 -17.2 °C -17.2 °C 33592.5 hPa Calm   8 km/h 98 % 0 mm
09:40 -17.2 °C -17.2 °C 33592.5 hPa Calm   8 km/h 98 % 0 mm
09:46 -17.2 °C -17.2 °C 33592.5 hPa SW 6.4 km/h 6.9 km/h 98 % 0 mm
09:51 -17.2 °C -17.2 °C 33592.5 hPa Calm   7.6 km/h 98 % 0 mm
09:56 -17.2 °C -17.2 °C 33626.4 hPa Calm   7.6 km/h 98 % 0 mm
10:01 -17.2 °C -17.2 °C 33626.4 hPa SW 9.8 km/h 9.8 km/h 98 % 0 mm
10:06 -17.2 °C -17.2 °C 33626.4 hPa Calm   9.8 km/h 98 % 0 mm
10:11 -17.2 °C -17.2 °C 33626.4 hPa Calm   9.3 km/h 98 % 0 mm
10:16 -17.2 °C -17.2 °C 33626.4 hPa West 2.3 km/h 9.3 km/h 98 % 0 mm
10:21 -17.2 °C -17.2 °C 33626.4 hPa Calm   9.3 km/h 98 % 0 mm
10:26 -17.2 °C -17.2 °C 33626.4 hPa Calm   8 km/h 98 % 0 mm
10:32 -17.2 °C -17.2 °C 33626.4 hPa SW 6.9 km/h 6.9 km/h 98 % 0 mm
10:37 -17.2 °C -17.2 °C 33626.4 hPa Calm   12.2 km/h 98 % 0 mm
10:42 -17.2 °C -17.2 °C 33626.4 hPa SSW 9.3 km/h 12.2 km/h 98 % 0 mm
10:47 -17.2 °C -17.2 °C 33626.4 hPa Calm   12.2 km/h 98 % 0 mm
10:57 -17.2 °C -17.2 °C 33626.4 hPa WSW 4.2 km/h 4.2 km/h 98 % 0 mm
11:02 -17.2 °C -17.2 °C 33626.4 hPa Calm   8 km/h 98 % 0 mm
11:07 -17.2 °C -17.2 °C 33626.4 hPa Calm   8 km/h 98 % 0 mm
11:12 -17.2 °C -17.2 °C 33626.4 hPa Calm     98 % 0 mm
11:17 -17.2 °C -17.2 °C 33626.4 hPa SW 14 km/h 16.3 km/h 98 % 0 mm
11:22 -17.2 °C -17.2 °C 33626.4 hPa SW 8.9 km/h 16.3 km/h 98 % 0 mm
11:27 -17.2 °C -17.2 °C 33626.4 hPa Calm   14 km/h 98 % 0 mm
11:32 -17.2 °C -17.2 °C 33626.4 hPa Calm   14 km/h 98 % 0 mm
11:37 -17.2 °C -17.2 °C 33626.4 hPa SW 6.4 km/h 9.8 km/h 98 % 0 mm
11:42 -17.2 °C -17.2 °C 33626.4 hPa Calm   14.5 km/h 98 % 0 mm
11:47 -17.2 °C -17.2 °C 33626.4 hPa SSW 8.9 km/h 14.5 km/h 98 % 0 mm
11:52 -17.2 °C -17.2 °C 33626.4 hPa SW 12.7 km/h 15 km/h 98 % 0 mm
11:57 -17.2 °C -17.2 °C 33626.4 hPa WSW 9.8 km/h 15 km/h 98 % 0 mm
12:02 -17.2 °C -17.2 °C 33626.4 hPa SW 12.7 km/h 17.4 km/h 98 % 0 mm
12:08 -17.2 °C -17.2 °C 33626.4 hPa WSW 11.1 km/h 17.4 km/h 98 % 0 mm
12:13 -17.2 °C -17.2 °C 33626.4 hPa WSW 11.1 km/h 17.4 km/h 98 % 0 mm
12:18 -17.2 °C -17.2 °C 33626.4 hPa West 16.3 km/h 17.4 km/h 98 % 0 mm
12:23 -17.2 °C -17.2 °C 33626.4 hPa West 14.5 km/h 16.9 km/h 98 % 0 mm
12:28 -17.2 °C -17.2 °C 33626.4 hPa Calm   14.5 km/h 98 % 0 mm
12:33 -17.2 °C -17.2 °C 33626.4 hPa Calm   12.2 km/h 98 % 0 mm
12:36 -17.2 °C -17.2 °C 33626.4 hPa WSW 17.4 km/h 17.4 km/h 98 % 0 mm
12:41 -17.2 °C -17.2 °C 33626.4 hPa WSW 14.5 km/h 23.8 km/h 98 % 0 mm
12:46 -17.2 °C -17.2 °C 33626.4 hPa West 9.3 km/h 23.8 km/h 98 % 0 mm
12:51 -17.2 °C -17.2 °C 33626.4 hPa NNW 6.4 km/h 15 km/h 98 % 0 mm
12:56 -17.2 °C -17.2 °C 33660.2 hPa WSW 16.3 km/h 17.9 km/h 98 % 0 mm
13:01 -17.2 °C -17.2 °C 33660.2 hPa West 11.1 km/h 18.7 km/h 98 % 0 mm
13:06 -17.2 °C -17.2 °C 33660.2 hPa WSW 7.6 km/h 18.7 km/h 98 % 0 mm
13:16 -17.2 °C -17.2 °C 33660.2 hPa West 14.5 km/h 17.4 km/h 98 % 0 mm
13:21 -17.2 °C -17.2 °C 33660.2 hPa WSW 6.9 km/h 17.4 km/h 98 % 0 mm
13:22 -17.2 °C -17.2 °C 33660.2 hPa Calm   17.4 km/h 98 % 0 mm
13:27 -17.2 °C -17.2 °C 33660.2 hPa Calm   14 km/h 98 % 0 mm
13:32 -17.2 °C -17.2 °C 33660.2 hPa WSW 9.8 km/h 9.8 km/h 98 % 0 mm
13:37 -17.2 °C -17.2 °C 33660.2 hPa WSW 6.4 km/h 11.1 km/h 98 % 0 mm
13:43 -17.2 °C -17.2 °C 33660.2 hPa West 11.1 km/h 15.6 km/h 98 % 0 mm
13:48 -17.2 °C -17.2 °C 33660.2 hPa West 5.6 km/h 15.6 km/h 98 % 0 mm
13:53 -17.2 °C -17.2 °C 33660.2 hPa Calm   18.7 km/h 98 % 0 mm
13:58 -17.2 °C -17.2 °C 33660.2 hPa Calm   18.7 km/h 98 % 0 mm
14:03 -17.2 °C -17.2 °C 33660.2 hPa Calm   14 km/h 98 % 0 mm
14:08 -17.2 °C -17.2 °C 33660.2 hPa Calm     98 % 7.62 mm
14:13 -17.2 °C -17.2 °C 33660.2 hPa Calm   9.3 km/h 98 % 7.62 mm
14:18 -17.2 °C -17.2 °C 33660.2 hPa West 9.3 km/h 11.6 km/h 98 % 7.62 mm
14:23 -17.2 °C -17.2 °C 33660.2 hPa Calm   15.6 km/h 98 % 7.62 mm
14:28 -17.2 °C -17.2 °C 33660.2 hPa West 8.9 km/h 15.6 km/h 98 % 7.62 mm
14:33 -15 °C -15 °C 33660.2 hPa West 2.3 km/h 15 km/h 98 % 7.62 mm
14:38 -15 °C -15 °C 33660.2 hPa Calm   15 km/h 98 % 7.62 mm
14:43 -15 °C -15 °C 33660.2 hPa West 8.9 km/h 14 km/h 98 % 7.62 mm
14:48 -15 °C -15 °C 33660.2 hPa West 12.7 km/h 15.6 km/h 98 % 7.62 mm
14:53 -15 °C -15 °C 33660.2 hPa West 15.6 km/h 15.6 km/h 98 % 7.62 mm
14:58 -15 °C -15 °C 33660.2 hPa Calm   18.7 km/h 98 % 7.62 mm
15:03 -15 °C -15 °C 33660.2 hPa Calm   15 km/h 98 % 7.62 mm
15:08 -15 °C -15 °C 33660.2 hPa Calm   12.7 km/h 98 % 0 mm
15:12 -15 °C -15 °C 33694.1 hPa Calm   10.3 km/h 98 % 0 mm
15:17 -15 °C -15 °C 33694.1 hPa Calm   10.3 km/h 98 % 0 mm
15:22 -15 °C -15 °C 33694.1 hPa Calm   8 km/h 98 % 0 mm
15:27 -15 °C -15 °C 33694.1 hPa Calm   8 km/h 98 % 0 mm
15:32 -15 °C -15 °C 33694.1 hPa Calm   7.6 km/h 98 % 0 mm
15:37 -15.1 °C -15 °C 33694.1 hPa Calm   4.2 km/h 98 % 0 mm
15:42 -15.1 °C -15 °C 33694.1 hPa Calm   9.3 km/h 98 % 0 mm
15:47 -15.1 °C -15 °C 33694.1 hPa Calm   9.3 km/h 98 % 0 mm
15:52 -15 °C -15 °C 33694.1 hPa West 9.8 km/h 9.8 km/h 98 % 0 mm
15:57 -15 °C -15 °C 33694.1 hPa WSW 16.3 km/h 20.9 km/h 98 % 0 mm
16:02 -15.1 °C -15 °C 33694.1 hPa WNW 9.8 km/h 22.5 km/h 98 % 0 mm
16:12 -15.1 °C -15 °C 33694.1 hPa West 10.3 km/h 14 km/h 98 % 0 mm
16:17 -15.2 °C -15 °C 33694.1 hPa Calm   14 km/h 98 % 0 mm
16:22 -15.2 °C -15 °C 33694.1 hPa Calm   12.7 km/h 98 % 0 mm
16:27 -15.2 °C -15 °C 33694.1 hPa West 16.9 km/h 16.9 km/h 98 % 0 mm
16:32 -15.2 °C -15 °C 33694.1 hPa WSW 3.4 km/h 16.9 km/h 98 % 0 mm
16:37 -15.2 °C -15 °C 33694.1 hPa WSW 12.7 km/h 14 km/h 98 % 0 mm
16:42 -15.4 °C -15.6 °C 33731.3 hPa Calm   14.5 km/h 98 % 0 mm
16:47 -15.4 °C -15.6 °C 33731.3 hPa West 9.8 km/h 22.5 km/h 98 % 0 mm
16:48 -15.4 °C -15.6 °C 33731.3 hPa Calm   22.5 km/h 98 % 0 mm
16:53 -15.4 °C -15.6 °C 33731.3 hPa Calm   22.5 km/h 98 % 0 mm
16:58 -15.4 °C -15.6 °C 33731.3 hPa SW 8 km/h 20.3 km/h 98 % 0 mm
17:03 -15.3 °C -15.6 °C 33731.3 hPa WNW 9.3 km/h 20.3 km/h 98 % 0 mm
17:09 -15.3 °C -15 °C 33731.3 hPa WNW 15.6 km/h 24.3 km/h 98 % 7.62 mm
17:14 -15.2 °C -15 °C 33751.6 hPa Calm   24.3 km/h 98 % 7.62 mm
17:19 -15.1 °C -15 °C 33751.6 hPa Calm   22.5 km/h 98 % 7.62 mm
17:24 -15.1 °C -15 °C 33751.6 hPa Calm   22.5 km/h 98 % 7.62 mm
17:29 -15.1 °C -15 °C 33751.6 hPa Calm   16.3 km/h 98 % 7.62 mm
17:34 -15.1 °C -15 °C 33751.6 hPa WSW 8 km/h 8.9 km/h 98 % 7.62 mm
17:39 -15.2 °C -15 °C 33751.6 hPa West 6.4 km/h 8.9 km/h 98 % 7.62 mm
17:44 -15.1 °C -15 °C 33751.6 hPa West 7.6 km/h 9.8 km/h 98 % 7.62 mm
17:54 -15.2 °C -15 °C 33751.6 hPa Calm   9.8 km/h 98 % 12.7 mm
17:59 -15.2 °C -15 °C 33751.6 hPa Calm   8 km/h 98 % 12.7 mm
18:04 -15.3 °C -15 °C 33751.6 hPa Calm   8 km/h 98 % 7.62 mm
18:09 -15.3 °C -15.6 °C 33751.6 hPa Calm   10.3 km/h 98 % 7.62 mm
18:14 -15.4 °C -15.6 °C 33751.6 hPa Calm   10.3 km/h 98 % 7.62 mm
18:19 -15.5 °C -15.6 °C 33751.6 hPa West 3.4 km/h 9.8 km/h 98 % 7.62 mm
18:24 -15.6 °C -15.6 °C 33751.6 hPa Calm   8.9 km/h 98 % 7.62 mm
18:30 -15.6 °C -15.6 °C 33751.6 hPa Calm   11.1 km/h 98 % 7.62 mm
18:35 -15.6 °C -15.6 °C 33751.6 hPa Calm   11.1 km/h 98 % 7.62 mm
18:40 -15.4 °C -15.6 °C 33751.6 hPa West 8.9 km/h 9.3 km/h 98 % 7.62 mm
18:45 -15.3 °C -15.6 °C 33788.9 hPa Calm   9.3 km/h 98 % 7.62 mm
18:50 -15.3 °C -15 °C 33788.9 hPa Calm   12.7 km/h 98 % 0 mm
18:55 -15.2 °C -15 °C 33788.9 hPa Calm   12.7 km/h 98 % 0 mm
19:00 -15.2 °C -15 °C 33788.9 hPa Calm   11.1 km/h 98 % 0 mm
19:05 -15.2 °C -15 °C 33788.9 hPa Calm   12.7 km/h 98 % 0 mm
19:10 -15.2 °C -15 °C 33788.9 hPa North 5.6 km/h 12.7 km/h 98 % 0 mm
19:15 -15.2 °C -15 °C 33788.9 hPa North 9.8 km/h 15 km/h 98 % 0 mm
19:25 -15.2 °C -15 °C 33822.8 hPa North 8 km/h 26.7 km/h 98 % 0 mm
19:31 -15.1 °C -15 °C 33822.8 hPa North 11.1 km/h 26.7 km/h 98 % 0 mm
19:36 -15.1 °C -15 °C 33822.8 hPa Calm   19.2 km/h 98 % 0 mm
19:46 -15.2 °C -15 °C 33822.8 hPa NW 2.9 km/h 19.2 km/h 98 % 0 mm
19:51 -15.2 °C -15 °C 33822.8 hPa NNW 8.9 km/h 19.2 km/h 98 % 0 mm
19:56 -15.2 °C -15 °C 33822.8 hPa North 14.5 km/h 18.7 km/h 98 % 0 mm
20:01 -15.3 °C -15 °C 33822.8 hPa North 6.9 km/h 18.7 km/h 98 % 0 mm
20:06 -15.3 °C -15.6 °C 33822.8 hPa Calm   16.9 km/h 98 % 0 mm
20:11 -15.3 °C -15.6 °C 33822.8 hPa North 8 km/h 16.9 km/h 98 % 0 mm
20:16 -15.3 °C -15.6 °C 33822.8 hPa NNE 2.3 km/h 18.7 km/h 98 % 0 mm
20:21 -15.3 °C -15.6 °C 33822.8 hPa NNW 16.3 km/h 20.9 km/h 98 % 0 mm
20:26 -15.3 °C -15.6 °C 33856.6 hPa North 15.6 km/h 23.8 km/h 98 % 0 mm
20:31 -15.3 °C -15.6 °C 33856.6 hPa North 16.3 km/h 23.8 km/h 98 % 0 mm
20:37 -15.3 °C -15.6 °C 33856.6 hPa NNW 8.9 km/h 20.9 km/h 98 % 0 mm
20:42 -15.4 °C -15.6 °C 33890.5 hPa NNW 14 km/h 24.3 km/h 98 % 0 mm
20:47 -15.4 °C -15.6 °C 33890.5 hPa Calm   24.3 km/h 98 % 0 mm
20:52 -15.5 °C -15.6 °C 33890.5 hPa North 14 km/h 16.3 km/h 98 % 0 mm
20:57 -15.6 °C -15.6 °C 33856.6 hPa Calm   16.3 km/h 98 % 0 mm
21:02 -15.6 °C -15.6 °C 33856.6 hPa NNW 11.1 km/h 16.3 km/h 98 % 0 mm
21:07 -15.6 °C -15.6 °C 33856.6 hPa NNW 8 km/h 22 km/h 98 % 0 mm
21:12 -15.6 °C -15.6 °C 33890.5 hPa NNW 16.3 km/h 22 km/h 98 % 0 mm
21:17 -15.6 °C -15.6 °C 33890.5 hPa NNE 16.3 km/h 20.9 km/h 98 % 0 mm
21:22 -15.6 °C -15.6 °C 33890.5 hPa NW 2.9 km/h 16.3 km/h 98 % 0 mm
21:27 -15.6 °C -15.6 °C 33890.5 hPa NNW 15 km/h 16.9 km/h 98 % 0 mm
21:33 -15.6 °C -15.6 °C 33890.5 hPa NNE 14 km/h 16.9 km/h 98 % 0 mm
21:38 -15.6 °C -15.6 °C 33890.5 hPa North 8 km/h 15 km/h 98 % 0 mm
21:43 -15.6 °C -15.6 °C 33924.3 hPa NNW 8.9 km/h 14.5 km/h 98 % 0 mm
21:49 -15.6 °C -15.6 °C 33924.3 hPa Calm   10.3 km/h 98 % 0 mm
21:54 -15.6 °C -15.6 °C 33924.3 hPa Calm   14 km/h 98 % 0 mm
21:59 -15.6 °C -15.6 °C 33924.3 hPa Calm   14 km/h 98 % 0 mm
22:04 -15.6 °C -15.6 °C 33924.3 hPa Calm   12.2 km/h 98 % 0 mm
22:09 -15.6 °C -15.6 °C 33924.3 hPa North 5.6 km/h 5.6 km/h 98 % 0 mm
22:14 -15.6 °C -15.6 °C 33924.3 hPa Calm   5.6 km/h 98 % 0 mm
22:19 -15.6 °C -15.6 °C 33924.3 hPa Calm     98 % 0 mm
22:24 -15.6 °C -15.6 °C 33924.3 hPa Calm     98 % 0 mm
22:29 -16 °C -16.1 °C 33958.2 hPa Calm     98 % 0 mm
22:35 -16 °C -16.1 °C 33958.2 hPa Calm   4.2 km/h 98 % 0 mm
22:40 -16 °C -16.1 °C 33958.2 hPa North 5.6 km/h 6.4 km/h 98 % 0 mm
22:45 -16 °C -16.1 °C 33958.2 hPa NNW 5.6 km/h 6.4 km/h 98 % 0 mm
22:50 -16 °C -16.1 °C 33958.2 hPa Calm   5.6 km/h 98 % 0 mm
22:55 -16 °C -16.1 °C 33958.2 hPa Calm     98 % 0 mm
23:00 -16 °C -16.1 °C 33958.2 hPa Calm     98 % 0 mm
23:05 -16 °C -16.1 °C 33958.2 hPa Calm     98 % 0 mm
23:10 -16 °C -16.1 °C 33958.2 hPa Calm   6.9 km/h 98 % 0 mm
23:13 -16 °C -16.1 °C 33958.2 hPa Calm   6.9 km/h 98 % 0 mm
23:18 -16 °C -16.1 °C 33958.2 hPa Calm   6.9 km/h 98 % 0 mm
23:23 -16 °C -16.1 °C 33958.2 hPa North 7.6 km/h 7.6 km/h 98 % 0 mm
23:29 -16 °C -16.1 °C 33958.2 hPa Calm   7.6 km/h 98 % 0 mm
23:33 -16 °C -16.1 °C 33958.2 hPa Calm   7.6 km/h 98 % 0 mm
23:38 -16 °C -16.1 °C 33958.2 hPa Calm   2.3 km/h 98 % 0 mm
23:43 -16 °C -16.1 °C 33992.1 hPa Calm   14 km/h 98 % 0 mm
23:49 -16 °C -16.1 °C 33992.1 hPa Calm   14 km/h 98 % 0 mm
23:54 -16 °C -16.1 °C 33992.1 hPa WNW 6.9 km/h 9.3 km/h 98 % 0 mm
23:59 -16 °C -16.1 °C 33992.1 hPa Calm   8.9 km/h 98 % 0 mm
Le Gheer Warneton
Courtoisie de Weather Underground - 2.25 mb

Mise a jour : 23/02/2018 07:50:11
Généré par Cumulus 1.9.4 (1099)